Regional Weather Roundup
Issued by NWS State College, PA

Home | Current Version | Previous Version | Graphics & Text | Print | Product List | Glossary On
Versions: 1 2 3 4 5 6 7 8 9 10 11 12 13 14 15 16 17 18 19 20 21 22 23 24 25 26 27 28 29 30 31 32 33 34 35 36 37 38 39 40 41 42 43 44 45 46 47 48 49 50
000
ASUS41 KCTP 161603
RWRCTP

REGIONAL WEATHER ROUNDUP
NATIONAL WEATHER SERVICE STATE COLLEGE PA
1100 AM EST MON JAN 16 2017

Note: "fair" indicates few or no clouds below 12,000 feet with no
significant weather and/or obstructions to visibility.

* = STATION THAT DOES NOT REPORT PRECIPITATION /E.G. RAIN...SNOW...ETC/
    THUNDER OR FOG.

PAZ002>004-007>009-013>016-020>023-029>032-161700-
WESTERN PENNSYLVANIA

CITY           SKY/WX    TMP DP  RH WIND       PRES   REMARKS
ERIE           CLOUDY    34  22  61 S5        30.37S
MEADVILLE      CLOUDY    32  22  66 E5        30.33S
FRANKLIN*        N/A     28  19  69 E3        30.34F
NEW CASTLE     CLOUDY    28  26  92 CALM      30.35F
BEAVER COUNTY  NOT AVBL
BUTLER*        CLOUDY    30  21  69 E3        30.36F
PITTSBURGH INT CLOUDY    32  24  72 E5        30.32F
PITTSBURGH     CLOUDY    32  22  66 CALM      30.32F
INDIANA*       CLOUDY    34  32  93 CALM      30.36F
LATROBE        PTSUNNY   30  27  86 NE6       30.34F
WASHINGTON CO* CLOUDY    34  27  75 CALM      30.33S
$$

PAZ004>006-010>012-017>019-024>028-033>037-041-042-045-046-049>053-161700-
CENTRAL PENNSYLVANIA

CITY           SKY/WX    TMP DP  RH WIND       PRES   REMARKS
BRADFORD       SUNNY     33  20  58 CALM      30.31F
DUBOIS         MOSUNNY   30  24  78 E5        30.32F
CLEARFIELD     MOSUNNY   25  21  85 NE3       30.37S
JOHNSTOWN      CLOUDY    32  29  88 SW3       30.31S
ALTOONA        CLOUDY    32  22  66 CALM      30.38R
STATE COLLEGE  SUNNY     27  23  86 CALM      30.40S
WILLIAMSPORT   SUNNY     26  21  81 CALM      30.45F
SELINSGROVE    SUNNY     25  23  92 CALM      30.47S FOG
FT INDIANTOWN  SUNNY     33  23  66 CALM      30.45F
CAPITAL CITY   PTSUNNY   33  23  66 SE3       30.46F
HARRISBURG     PTSUNNY   32  24  72 SE5       30.46F
YORK           CLOUDY    32  27  81 CALM      30.45S HAZE
$$

PAZ038>040-043-044-047-048-054-055-060>062-067>071-161700-
EASTERN PENNSYLVANIA

CITY           SKY/WX    TMP DP  RH WIND       PRES   REMARKS
SCRANTON       SUNNY     26  18  71 CALM      30.41F
MOUNT POCONO   SUNNY     30  17  58 W9        30.35S
ALLENTOWN      SUNNY     31  21  66 CALM      30.46F
QUAKERTOWN*    SUNNY     32  19  59 CALM      30.46F
READING        SUNNY     32  21  64 CALM      30.46F
LANCASTER      CLOUDY    32  25  75 E3        30.46F
COATESVILLE    SUNNY     34  23  64 CALM      30.46F
POTTSTOWN      SUNNY     33  22  63 CALM      30.48F
BLUE BELL      SUNNY     34  23  64 CALM      30.46F
DOYLESTOWN     SUNNY     36  21  54 SW3       30.45F
WILLOW GROVE   NOT AVBL
NORTH PHILA    SUNNY     38  21  50 W3        30.49F
PHILADELPHIA   PTSUNNY   37  22  54 CALM      30.49F
$$



USA.gov is the U.S. government's official web portal to all federal, state and local government web resources and services.